Regional Weather Roundup
Issued by NWS Bismarck, ND

Home | Current Version | Previous Version | Text Only | Print | Product List | Glossary On
Versions: 1 2 3 4 5 6 7 8 9 10 11 12 13 14 15 16 17 18 19 20 21 22 23 24 25 26 27 28 29 30 31 32 33 34 35 36 37 38 39 40 41 42 43 44 45 46 47 48 49 50
000
ASUS43 KBIS 260202
RWRBIS

NWR BROADCAST TEXT
NATIONAL WEATHER SERVICE BISMARCK ND
900 PM CDT THU MAY 25 2017

NOTE: "FAIR" INDICATES FEW OR NO CLOUDS BELOW 12,000 FEET WITH NO
SIGNIFICANT WEATHER AND/OR OBSTRUCTIONS TO VISIBILITY.


CITY           SKY/WX    TMP DP  RH WIND       PRES   REMARKS
WILLISTON      MOCLDY    60  41  49 W10       29.53R
MINOT          CLOUDY    63  43  48 SW15      29.49R
MINOT AFB      FAIR      61  43  51 W15       29.48R
BISMARCK       CLOUDY    64  44  48 W16       29.56R
DICKINSON      CLOUDY    55  40  56 W18G30    29.60R
GARRISON         N/A     58  42  55 W12       29.53R
HETTINGER ARPT FAIR      53  45  74 W20G25    29.66R
JAMESTOWN      FAIR      65  43  44 W9        29.50R
HAZEN          CLOUDY    61  43  51 W14G22    29.57R
LINTON         FAIR      64  48  55 NW10      29.58R
MANDAN         CLOUDY    61  45  55 W14       29.57R
STANLEY        MOCLDY    54  48  82 W9        29.54R
TIOGA          CLOUDY    57  41  54 W15       29.53R
WATFORD CITY   CLOUDY    57  46  67 W12       29.55R
$$

CITY           SKY/WX    TMP DP  RH WIND       PRES   REMARKS
GRAND FORKS    FAIR      66  52  60 S15       29.50R
GRAND FORKS AF FAIR      64  51  62 S17       29.49R
DEVILS LAKE    CLOUDY    65  46  50 W9        29.49R
FARGO          FAIR      67  52  58 SE15G26   29.53R
CAVALIER       FAIR      64  48  55 SE13      29.47R
GRAFTON        FAIR      64  50  59 SE17      29.50S
GWINNER        CLEAR     64  54  68 MISG      29.52R
LANGDON        FAIR      64  50  59 S14       29.47R
ROLLA          FAIR      59  46  63 W15       29.47R
$$

CITY           SKY/WX    TMP DP  RH WIND       PRES   REMARKS
ABERDEEN       FAIR      66  44  45 CALM      29.54R
MOBRIDGE       FAIR      67  42  40 NW14      29.56R
BUFFALO          N/A     53  42  66 W17G26    29.65R
RAPID CITY     CLOUDY    57  41  55 N35G43    29.70R
GLASGOW        CLOUDY    53  38  56 NW23G36   29.66R
SIDNEY         CLOUDY    56  44  64 W21G28    29.59R
WOLF POINT     FAIR      56  41  57 W26G35    29.61R
GLENDIVE       CLOUDY    56  41  57 W20       29.65R
MILES CITY     CLOUDY    56  37  49 NW23G32   29.72R
BAKER          CLOUDY    52  42  69 W20G25    29.68R
$$

CITY           SKY/WX    TMP DP  RH WIND       PRES   REMARKS
BILLINGS       FAIR      57  30  35 NW14      29.81R
GREAT FALLS    CLOUDY    51  36  56 NW10      29.86R
$$





USA.gov is the U.S. government's official web portal to all federal, state and local government web resources and services.